Theta_e
321 320 319 318 318 318 318 318 319 319 319 319 319 319 319 320 319 320 320 320 321 322 323 324 325 325 325 326 326 326 323 320 321 316 312 318 329 335 335 337 337 338 334 325 319 310 307 308 307 309 310 313 315 311 313 316 313 314 304 299 296 296 296 300 299 298 301 299 298 300 301 301 298 301 303 304 303 303 302 303 305 307 307 310 321 326 325 325
320 320 319 318 317 318 318 318 318 318 318 318 318 319 319 319 319 319 320 320 321 322 322 324 324 325 326 325 325 326 321 326 314 314 309 328 333 333 332 335 336 335 331 316 312 307 306 305 307 306 308 306 316 310 313 312 314 308 300 298 295 299 299 301 301 302 300 299 300 301 301 301 301 301 302 299 299 299 300 301 303 303 306 307 315 322 322 322
320 319 318 317 317 318 317 317 317 318 317 317 318 318 318 318 319 319 320 320 320 321 322 323 324 324 325 325 325 323 324 322 312 309 321 331 334 333 335 330 333 335 321 318 313 309 307 307 307 305 305 303 307 306 310 308 310 306 303 297 299 302 299 302 303 301 302 303 301 300 301 301 301 302 303 299 298 299 298 298 299 301 303 305 312 318 320 321
320 319 318 316 317 317 317 316 317 317 317 317 318 318 318 318 319 319 320 321 320 321 321 322 323 324 324 324 325 322 320 323 303 314 323 332 333 334 332 333 332 330 325 321 317 310 309 308 307 305 309 305 305 309 304 307 304 304 301 299 300 299 299 300 302 302 302 302 302 301 301 301 302 303 301 300 297 298 300 301 301 301 303 306 308 316 318 321
320 319 317 317 317 317 316 316 316 316 317 318 318 318 318 318 319 320 320 321 321 321 322 322 323 324 324 325 323 323 325 298 302 318 321 329 332 331 331 330 331 318 315 315 311 309 308 306 306 306 307 299 303 302 299 303 307 306 298 300 300 300 298 301 301 301 300 300 303 300 298 300 302 303 301 300 296 295 300 304 303 305 307 307 306 315 317 320
319 318 318 318 317 317 316 316 316 316 317 318 318 317 318 318 319 319 320 320 321 321 321 322 323 323 324 323 322 324 315 290 312 322 325 328 329 327 329 329 330 322 315 311 309 310 307 306 305 304 301 300 298 296 299 301 304 301 298 299 300 300 299 302 301 299 299 303 301 300 302 301 300 301 301 300 299 301 303 305 305 307 309 309 309 314 313 317
318 318 317 317 317 316 316 316 316 316 317 318 318 318 318 318 318 319 320 320 321 321 321 322 323 324 322 321 322 319 306 310 309 327 330 326 325 327 323 326 329 316 311 310 308 308 307 304 303 301 300 301 299 298 301 301 304 300 296 299 299 301 300 301 299 300 299 300 300 301 302 301 299 298 302 300 301 303 304 306 305 304 308 310 309 311 312 314
318 317 317 317 316 316 316 315 316 316 317 318 317 317 318 318 319 319 319 320 321 321 322 322 323 322 321 322 316 304 307 306 316 322 322 326 319 315 322 317 316 319 311 309 307 305 306 303 301 306 300 298 299 300 303 301 301 298 298 300 300 301 300 299 298 299 300 301 300 301 300 300 301 300 299 299 302 303 304 304 304 305 304 307 310 310 311 313
317 317 316 316 316 316 315 315 315 315 316 317 317 317 318 318 319 318 319 320 321 321 321 322 322 321 320 317 313 305 299 318 320 319 319 318 313 312 321 317 319 312 311 310 308 307 309 304 302 305 298 299 303 299 299 298 295 301 299 300 300 300 300 299 300 300 301 301 301 300 299 300 301 302 299 301 302 303 304 303 304 304 303 302 307 310 310 310
317 317 316 316 315 315 315 315 315 315 315 316 316 317 317 319 319 319 319 320 321 321 321 322 322 320 318 318 312 297 315 314 320 319 315 314 312 313 314 314 315 311 309 308 309 307 307 306 307 308 310 301 304 300 302 300 299 302 299 300 300 299 299 301 300 300 301 301 301 299 299 299 300 299 294 301 302 303 304 303 304 303 302 303 303 305 309 309
318 317 316 315 315 314 315 314 314 314 315 316 316 317 318 319 318 319 319 320 320 321 322 322 322 320 323 311 303 296 319 316 321 315 314 316 313 313 316 313 311 312 311 309 310 308 310 309 312 311 305 300 302 299 301 301 302 302 301 299 299 300 301 300 301 299 300 299 300 301 298 300 299 300 296 302 303 304 303 303 302 303 302 301 303 303 304 307
317 317 316 315 315 314 314 314 313 313 314 315 316 316 317 318 318 318 319 320 321 321 322 321 321 319 312 308 301 303 315 317 317 313 319 316 315 315 316 314 312 319 311 308 314 316 315 313 311 305 299 306 296 300 299 302 303 300 300 296 298 299 298 299 299 299 300 299 300 302 298 296 297 295 300 301 303 303 302 302 302 302 303 303 302 302 303 304
317 317 316 315 314 314 314 314 314 314 314 315 315 316 317 317 318 318 319 320 320 322 321 321 320 321 319 299 304 313 319 316 315 312 315 316 313 314 313 316 315 311 311 311 310 315 315 311 310 306 307 304 300 295 301 304 302 302 301 298 296 295 294 299 301 299 298 300 301 300 288 291 297 300 301 302 302 302 302 301 300 301 303 303 303 302 303 305
317 316 315 315 315 314 314 313 313 314 314 315 315 316 317 317 317 318 319 319 321 321 321 320 320 314 307 297 312 319 317 316 314 313 317 319 315 319 315 321 317 312 314 308 311 311 316 309 314 306 309 302 299 306 302 302 302 295 298 299 293 291 291 299 300 298 297 300 301 301 290 291 297 300 302 303 303 302 300 299 300 302 303 303 303 303 303 306
316 316 315 315 315 314 313 313 314 314 314 315 315 316 316 316 317 318 319 319 321 322 319 319 318 316 300 303 313 317 327 318 313 313 317 315 312 313 311 314 311 310 309 310 312 312 310 315 311 303 300 306 303 301 296 296 297 298 291 288 293 292 295 298 301 298 295 297 300 298 291 292 297 299 302 302 302 302 299 299 300 302 302 303 304 304 304 305
316 315 315 314 314 313 313 313 314 314 315 315 315 316 316 316 317 318 320 320 321 321 320 319 320 313 299 298 313 323 321 309 309 318 313 318 317 312 314 312 312 311 312 309 313 311 311 311 304 304 301 303 300 296 294 294 294 296 291 293 291 293 293 295 297 301 300 298 300 297 290 294 296 298 300 300 301 300 299 299 300 301 302 301 303 304 304 305
316 316 315 314 314 314 314 314 313 314 314 314 315 315 316 317 318 320 321 321 320 319 318 313 309 305 296 308 311 308 306 314 314 317 315 314 313 314 312 313 309 309 312 310 315 317 309 306 303 303 305 296 297 299 291 289 290 290 294 289 296 291 292 290 296 298 300 298 294 296 292 293 296 298 300 300 301 300 299 300 301 301 300 301 301 302 304 304
316 316 315 315 316 316 315 315 314 313 314 314 314 315 315 318 320 318 320 318 320 316 316 313 310 307 295 301 300 303 312 311 317 312 315 312 311 310 311 308 308 307 310 306 310 307 308 301 302 297 297 298 296 294 289 286 290 289 289 289 290 294 293 291 291 295 298 297 294 294 293 294 297 298 299 299 301 301 299 300 300 300 300 300 301 301 302 303
317 317 316 316 315 315 316 316 314 314 314 315 316 317 318 319 319 317 314 313 310 298 296 298 299 290 291 297 308 310 315 313 312 313 307 312 316 313 312 310 311 304 303 300 300 304 304 302 304 298 291 292 293 295 293 296 295 293 295 293 292 290 290 290 295 297 297 293 292 292 291 294 296 298 300 300 301 300 300 300 300 300 300 300 300 301 302 303
317 317 316 315 314 315 315 315 314 314 315 314 314 314 315 309 310 303 309 306 301 298 303 302 302 302 304 307 307 309 314 314 305 312 312 314 313 310 307 306 311 306 300 298 302 300 306 297 292 292 294 295 296 297 298 296 295 294 295 294 291 291 293 295 295 296 297 293 291 293 294 294 295 297 298 298 298 298 298 298 299 299 300 301 300 301 301 302
317 317 316 315 315 315 315 315 314 314 315 313 315 314 298 298 294 292 300 302 302 309 304 303 306 305 305 307 307 307 303 304 308 309 313 315 311 305 301 303 300 298 298 301 300 302 301 295 294 296 297 298 298 297 296 296 294 294 293 293 290 295 290 296 295 296 296 293 290 292 292 293 294 296 297 298 298 298 299 299 299 299 300 301 301 302 302 303
318 317 317 316 316 316 316 315 315 316 315 314 314 312 309 307 312 310 306 293 300 308 305 307 305 305 311 308 310 312 313 302 305 307 313 313 307 300 300 300 297 293 298 300 297 295 294 291 296 298 299 298 297 296 296 294 296 295 292 292 292 291 294 295 295 296 297 294 290 291 290 293 295 296 297 297 298 300 300 300 299 299 299 300 302 302 303 303
318 318 317 317 317 317 316 316 315 315 314 310 310 311 311 317 317 317 314 307 297 310 304 304 301 303 305 309 310 311 303 299 299 305 306 313 303 303 300 296 295 295 298 298 294 293 290 293 297 299 298 296 295 295 295 297 297 293 292 290 289 295 293 289 293 295 295 293 290 290 290 293 296 297 297 299 299 300 301 301 301 301 300 300 301 301 302 303
317 318 317 317 317 317 316 315 316 314 311 312 311 312 316 317 317 316 313 301 297 300 304 303 304 304 302 302 309 306 303 301 304 301 309 308 300 303 301 297 295 295 295 296 295 293 292 297 299 298 298 297 294 295 294 292 290 294 296 293 292 294 294 291 291 293 295 295 295 292 291 291 294 294 295 298 300 299 300 300 300 301 303 303 303 304 304 303
317 317 317 317 317 318 316 316 311 309 312 311 310 316 318 317 318 315 311 298 297 301 308 307 308 308 306 312 313 303 303 302 304 306 307 307 302 299 299 301 297 293 296 297 296 294 294 297 301 296 299 296 296 292 293 295 288 291 295 295 294 294 292 294 295 294 289 288 293 294 282 284 293 294 296 298 297 297 299 299 299 300 301 301 301 302 303 306
317 317 317 317 317 317 317 309 308 312 311 308 313 317 318 316 317 310 306 294 288 297 301 293 305 296 313 304 310 308 302 298 305 308 307 309 308 303 301 297 298 292 295 296 295 295 294 297 300 297 296 296 296 295 295 296 290 289 290 296 297 294 295 294 294 291 283 281 292 294 284 281 287 290 292 293 295 296 297 298 299 300 301 300 302 303 303 304
317 317 317 317 317 317 307 302 315 312 304 306 316 317 317 316 317 314 295 290 285 296 291 305 300 299 310 304 304 302 288 292 304 306 306 310 304 306 296 294 296 298 299 299 293 291 295 295 296 297 297 295 295 290 296 295 290 287 295 297 297 296 293 294 293 292 288 293 294 293 291 281 283 289 293 295 294 294 295 297 298 300 300 301 301 304 303 304
317 317 317 318 317 316 309 312 311 306 304 310 315 317 318 317 318 311 296 279 279 300 296 294 304 308 307 304 306 296 297 301 297 301 304 308 305 302 297 295 295 295 298 295 285 297 296 294 296 295 295 292 292 296 298 297 293 292 295 299 296 297 295 294 292 290 289 286 282 288 292 283 282 288 294 294 291 292 293 294 295 297 297 298 302 304 303 304
318 317 317 317 317 317 316 311 310 306 313 317 317 319 319 317 311 298 287 278 298 295 307 295 311 307 303 303 300 299 298 301 296 301 308 305 306 302 294 296 297 295 297 296 290 296 296 297 297 298 294 291 294 293 297 299 291 294 297 299 298 297 296 294 289 288 286 283 281 286 291 281 284 289 288 291 291 291 292 294 297 297 298 300 302 301 302 302
318 318 317 317 317 314 313 313 309 317 316 316 317 318 318 312 303 288 282 273 300 289 299 298 298 296 299 296 296 297 296 298 300 301 302 299 302 305 300 302 299 296 295 297 297 295 296 297 296 298 295 297 293 294 295 296 297 298 298 295 294 292 290 289 288 285 283 279 281 290 291 288 280 288 288 289 291 294 293 295 296 299 302 304 303 302 301 301
318 318 317 317 312 313 311 306 310 317 316 316 316 315 310 305 291 282 275 287 299 296 298 294 294 300 295 293 290 295 296 297 298 299 295 301 297 299 299 296 302 295 290 292 291 294 297 296 296 297 296 297 296 293 297 298 297 298 293 290 290 287 287 285 284 285 279 278 286 290 291 289 278 281 292 294 295 295 295 293 293 296 300 303 301 301 301 300
317 318 318 316 316 316 307 307 315 316 315 317 314 307 299 285 289 280 279 294 287 291 292 290 296 295 294 295 294 292 292 296 297 296 294 293 292 292 293 289 291 284 284 285 285 293 291 293 295 295 297 297 294 292 292 295 296 296 291 288 282 281 282 279 282 278 278 277 282 284 290 286 285 289 291 294 295 294 295 295 295 297 299 304 301 299 299 300
317 317 317 317 315 312 313 317 315 314 315 314 311 304 293 282 275 285 287 289 287 295 292 298 294 294 294 293 292 293 297 291 297 295 297 296 293 293 296 294 295 291 283 287 286 285 288 294 294 294 295 296 297 288 285 284 290 292 288 283 280 276 276 273 277 281 281 283 283 285 286 283 288 290 293 294 295 296 297 297 300 300 299 299 303 301 301 300
315 317 315 316 316 315 315 317 315 314 311 311 304 296 292 280 279 293 289 290 294 299 297 295 294 295 294 290 293 294 290 296 295 295 296 293 293 290 293 295 295 292 292 287 284 285 280 282 290 292 288 296 295 293 291 289 290 291 292 290 283 280 276 273 277 275 277 279 283 285 281 279 279 285 294 295 295 295 297 297 299 300 300 299 302 301 301 300
315 316 317 316 315 316 315 316 315 314 311 307 296 290 282 280 285 285 286 290 296 297 295 298 293 292 291 293 296 295 295 290 296 294 293 292 289 290 290 291 295 295 293 286 287 285 285 285 293 297 295 296 294 298 298 294 290 290 292 294 286 283 287 278 281 282 278 280 278 280 280 283 287 293 294 296 295 296 297 298 297 297 299 300 301 302 302 301
313 313 316 313 313 315 316 315 315 314 308 300 290 284 282 286 283 290 289 299 297 294 294 295 294 290 288 290 294 293 297 294 294 294 292 293 293 291 295 294 293 295 291 286 288 283 285 282 293 296 295 294 295 299 298 297 283 288 291 284 288 293 290 284 281 281 280 278 278 282 283 287 289 293 295 296 295 295 295 296 296 296 298 298 299 300 299 301
309 312 308 312 313 316 315 315 314 310 305 298 288 283 288 290 296 296 299 296 297 296 293 287 289 289 287 287 289 291 293 297 293 292 288 294 291 294 294 296 298 295 296 293 288 293 284 286 289 291 291 294 292 295 298 295 298 290 283 288 294 295 292 285 278 280 278 276 278 280 280 283 281 282 291 290 291 293 293 294 297 297 296 297 299 299 300 301
309 308 309 310 313 315 314 314 312 307 300 293 287 290 293 289 298 297 301 299 297 297 292 290 290 293 288 289 288 290 293 290 291 291 288 292 287 298 295 294 298 297 297 298 289 292 293 282 286 290 291 293 295 295 295 297 295 292 288 298 288 281 280 283 280 275 273 273 276 279 281 282 285 286 288 288 289 291 293 295 295 296 296 297 298 299 300 300
308 306 301 308 316 315 313 313 310 303 295 288 287 287 294 294 299 296 299 301 300 297 291 292 291 292 293 289 291 292 292 286 292 289 286 289 285 295 295 297 295 299 298 298 292 293 293 283 284 288 290 293 293 291 284 286 294 296 296 292 295 288 282 281 281 280 280 275 273 277 278 280 288 288 289 291 292 293 294 294 294 296 297 298 298 300 300 301
304 300 299 313 315 314 313 311 304 299 291 285 287 288 300 295 302 305 302 302 297 295 292 293 295 291 293 292 293 289 292 291 291 290 289 291 290 297 295 299 296 297 298 298 295 298 288 288 280 285 290 291 283 288 286 288 285 284 285 284 288 285 288 284 285 281 279 275 275 275 277 282 288 292 292 293 294 294 295 295 295 296 297 298 299 300 301 302
306 299 301 312 313 313 311 305 297 289 286 287 289 290 294 295 301 303 306 305 303 305 299 294 294 291 292 292 291 294 291 291 292 290 290 291 291 286 296 298 298 296 297 296 294 293 285 283 282 282 283 283 286 293 292 293 292 290 289 287 290 286 283 278 279 288 283 281 276 277 277 285 291 295 295 294 294 294 296 296 297 297 298 299 299 300 303 303
299 291 297 312 313 312 305 295 291 288 286 286 286 288 290 299 296 300 302 302 302 300 304 301 301 296 294 293 294 293 292 290 291 291 291 289 294 293 297 301 299 299 295 290 291 296 293 286 283 281 284 287 290 295 295 295 295 293 291 288 291 289 286 281 277 279 283 282 284 280 278 284 292 294 295 295 296 296 296 296 298 298 298 299 301 302 304 304
296 293 307 312 313 309 300 293 291 286 285 288 295 292 294 292 295 299 299 299 298 300 299 298 300 297 297 295 295 293 293 289 292 290 293 292 294 296 301 300 301 298 298 291 295 292 296 285 283 284 289 291 291 294 294 294 294 291 291 289 288 287 288 285 282 282 281 281 281 280 277 284 292 294 295 296 297 297 298 298 297 298 301 302 302 302 302 303
296 296 300 310 312 308 297 287 284 285 286 289 292 291 295 293 294 294 296 298 294 295 296 297 299 302 299 300 296 293 295 286 293 293 291 294 291 300 301 300 301 296 295 293 291 295 285 284 285 280 280 283 285 288 287 290 291 286 286 291 292 293 290 286 285 285 283 282 283 281 277 283 291 287 292 295 295 296 297 297 299 298 299 301 301 302 301 301
295 298 299 303 308 305 291 296 291 287 287 286 287 286 290 291 294 295 296 296 298 297 297 294 299 300 297 298 297 298 297 293 288 294 295 294 294 298 299 300 300 296 297 299 297 298 289 287 286 280 277 276 275 278 279 282 285 286 286 289 292 291 290 286 283 283 281 284 285 282 282 289 291 290 293 294 294 294 295 295 296 297 298 301 301 300 300 300
291 284 293 296 301 300 299 301 298 292 288 287 286 288 290 288 293 295 296 295 299 298 297 298 298 300 296 296 294 293 294 298 294 291 293 292 295 293 300 302 300 299 298 297 298 296 286 290 289 286 284 282 284 284 289 290 284 283 286 288 289 291 292 290 285 283 282 285 283 284 286 288 289 290 291 289 290 293 294 295 296 296 295 296 298 300 299 299
295 286 288 286 295 296 294 298 294 295 289 292 286 290 286 289 292 293 297 291 297 296 296 296 296 294 293 295 293 292 294 293 295 295 293 293 295 295 298 299 302 298 295 296 297 292 287 287 289 289 288 289 289 287 292 291 287 288 287 287 290 290 290 289 286 285 289 283 281 287 289 286 289 291 292 292 292 293 295 294 296 295 296 298 297 298 300 299
286 290 292 295 289 285 288 290 295 294 295 293 289 293 289 288 290 289 294 295 298 298 293 294 294 295 296 294 294 289 292 291 292 290 294 292 292 295 292 297 296 296 295 295 298 293 287 286 290 290 288 290 290 291 293 291 290 289 289 288 288 289 289 287 288 290 289 285 283 288 288 287 290 293 292 294 295 296 296 297 297 298 298 298 298 298 299 298
292 293 292 296 288 290 291 294 296 294 293 293 291 292 289 289 288 292 292 291 293 294 295 286 290 293 294 296 294 289 291 287 287 291 289 290 288 288 287 291 295 296 295 292 291 292 289 287 289 290 288 290 290 291 292 291 290 289 289 290 290 289 289 290 290 291 290 288 290 290 290 290 293 294 294 294 297 297 297 298 297 297 297 298 297 298 297 297
288 287 287 294 295 293 293 293 294 293 290 293 288 290 291 290 289 292 295 292 288 291 297 291 292 294 294 294 294 291 293 294 293 289 293 292 289 290 288 291 288 288 289 290 292 290 290 287 292 289 287 287 290 290 290 290 290 288 290 291 291 291 290 290 290 290 290 290 291 291 290 289 295 297 296 297 297 297 298 297 299 298 297 297 297 297 298 299
295 296 296 291 287 289 291 292 292 292 289 291 288 291 292 292 291 294 294 297 293 290 293 291 293 294 295 294 294 294 297 296 296 296 297 295 290 294 291 288 293 288 289 288 287 288 290 286 287 287 285 285 288 288 287 287 287 287 287 289 291 291 288 289 288 291 289 287 289 289 287 288 294 297 297 297 296 296 297 298 299 299 298 297 298 299 298 298
295 297 297 294 287 291 288 290 291 291 286 291 291 291 291 292 294 295 291 296 297 297 296 295 295 294 292 293 292 295 298 299 299 299 299 300 299 296 298 295 294 290 287 287 288 286 287 286 286 285 284 284 288 288 285 286 286 285 286 289 291 291 293 293 293 293 293 293 288 286 287 294 296 297 294 295 296 296 297 299 298 298 297 298 298 299 300 299
Wind_Speed
11 11 10 7 8 7 6 5 5 4 3 3 3 3 3 3 3 3 4 4 6 6 7 7 7 7 8 8 8 8 8 2 2 3 6 0 0 2 2 2 3 5 5 4 4 3 2 3 3 2 2 1 0 0 1 0 0 0 1 2 2 4 2 3 1 3 6 5 5 5 6 5 4 3 1 0 1 0 4 1 4 5 6 7 6 7 7 6
12 11 10 8 8 7 6 5 5 4 4 3 3 4 4 3 4 4 4 4 5 6 6 7 7 7 8 7 7 7 5 1 4 6 4 1 1 1 3 3 3 4 4 2 3 3 5 3 2 3 2 2 0 0 0 1 0 1 2 3 3 2 0 4 5 7 2 5 6 5 5 3 5 7 3 2 3 4 3 3 5 5 7 6 6 8 7 7
12 12 11 8 7 7 6 5 4 5 4 4 4 4 3 4 4 4 4 4 4 5 6 6 7 7 7 8 7 8 3 2 2 6 3 3 2 3 3 3 3 1 1 3 3 4 4 5 2 3 3 2 2 1 1 1 0 1 1 3 1 2 4 7 7 4 4 2 8 5 3 1 5 4 3 3 4 7 6 5 5 7 7 8 7 7 8 7
12 12 12 8 8 7 6 5 5 4 3 4 4 3 3 3 4 4 4 4 5 5 5 6 6 7 7 8 8 6 1 1 3 3 2 3 3 4 3 3 3 3 4 6 6 5 3 4 1 3 1 2 1 1 2 2 1 1 1 0 1 3 1 4 5 4 3 4 3 4 2 1 2 3 4 4 3 4 6 6 5 9 10 12 11 10 9 9
13 12 11 10 8 7 6 5 5 4 5 4 3 3 3 4 4 5 5 5 5 5 5 5 6 6 7 7 9 2 1 1 2 3 3 3 4 4 3 3 4 3 4 5 5 4 3 3 2 3 1 2 3 1 2 2 0 0 1 2 3 5 4 3 5 5 4 4 1 5 4 2 3 2 2 3 3 2 0 1 0 2 3 14 12 9 7 9
12 12 11 10 8 7 7 6 5 5 5 4 3 2 3 3 4 5 6 6 6 5 5 5 6 7 7 7 5 2 1 2 0 1 2 3 2 3 2 4 4 4 4 5 3 1 2 3 3 2 1 2 4 3 3 2 1 0 1 3 4 3 4 0 2 2 4 0 3 3 2 4 2 2 4 4 5 2 4 7 7 4 8 13 12 11 9 9
12 11 10 9 7 8 8 7 6 5 5 4 2 2 2 3 4 5 6 6 6 5 5 5 6 7 8 6 3 2 3 1 1 1 1 3 2 1 3 4 5 3 3 3 3 2 3 3 3 4 3 2 5 2 2 3 1 1 1 2 3 4 5 4 2 2 2 6 3 2 1 0 4 1 0 5 5 4 5 6 8 7 6 11 11 10 11 11
12 11 9 7 7 8 9 7 7 6 6 4 3 4 4 3 4 5 6 7 7 6 5 6 6 6 7 1 1 2 2 1 3 4 2 1 3 0 1 3 3 2 3 3 2 3 2 4 5 1 3 0 2 3 1 2 2 2 2 3 1 3 3 3 2 1 1 2 2 4 1 1 2 0 3 3 4 3 1 5 7 7 5 6 10 9 9 8
12 11 10 8 7 7 8 8 7 6 6 5 4 5 6 5 4 5 7 7 7 6 5 6 6 6 3 2 3 2 5 1 4 3 3 4 4 2 1 1 4 2 1 2 2 4 2 2 4 1 1 3 0 4 1 1 2 0 4 4 3 3 3 2 3 2 0 2 2 0 1 2 1 1 4 7 5 4 4 5 5 5 6 5 7 9 8 8
12 11 10 9 7 8 8 7 7 6 6 6 5 5 6 6 5 6 7 8 8 7 6 6 6 6 2 2 1 3 0 7 4 0 3 2 5 4 3 4 1 3 3 2 2 3 2 3 2 2 1 3 0 2 1 2 0 1 4 4 4 4 3 2 2 2 1 2 0 1 2 2 1 4 5 2 5 6 4 6 5 5 5 5 5 6 7 8
13 12 11 10 9 4 6 7 6 7 6 6 5 6 7 6 6 6 7 8 8 6 6 5 5 5 1 3 3 5 1 2 2 1 2 1 4 3 2 4 3 3 3 2 1 3 3 3 1 0 2 1 3 2 2 0 1 1 4 5 4 3 3 1 2 4 2 1 1 1 3 1 4 1 9 2 0 4 5 4 5 5 4 5 6 6 6 7
14 14 13 11 8 8 9 9 9 8 7 6 5 6 6 6 6 7 8 8 9 5 6 5 5 2 3 3 6 1 3 2 2 2 1 2 1 1 3 1 2 2 4 1 2 2 3 2 4 1 0 1 2 3 1 2 1 3 3 3 4 4 3 4 4 4 3 1 2 0 2 5 4 6 12 4 4 4 4 4 5 5 4 5 5 5 6 7
14 13 13 12 10 10 11 10 9 9 8 7 6 6 6 6 7 7 8 8 6 8 6 5 5 2 2 2 1 1 1 1 1 4 2 0 2 1 1 1 2 3 3 1 2 0 1 2 2 0 1 2 3 1 2 2 2 0 1 1 4 3 3 8 3 4 2 1 1 2 1 6 9 16 6 6 6 4 3 3 4 5 5 5 5 5 5 5
13 12 12 11 11 10 11 11 10 9 8 8 7 6 6 7 8 9 8 8 9 8 5 5 2 3 2 0 1 0 2 2 1 3 1 0 1 0 1 0 2 2 4 6 2 1 2 1 1 3 1 4 2 2 2 1 1 1 3 0 2 3 1 7 3 4 3 0 1 1 1 8 4 3 3 3 6 6 5 5 5 5 5 6 6 5 6 6
12 11 11 11 11 10 11 10 9 9 9 8 7 6 7 8 9 9 9 8 7 4 5 3 3 1 2 1 1 1 2 3 2 2 2 2 3 3 3 2 4 4 3 3 1 1 2 2 0 1 2 1 5 3 3 2 2 1 3 3 2 3 1 1 2 6 3 1 2 2 2 7 8 2 1 2 1 3 4 5 5 5 5 6 6 6 6 7
13 12 11 10 11 11 11 10 9 9 8 7 7 7 7 9 10 9 9 9 10 8 3 1 3 1 2 4 1 1 1 2 4 1 1 2 2 2 3 3 3 2 1 2 0 1 0 1 2 1 2 1 1 2 4 2 1 1 3 1 3 2 3 2 2 1 4 4 1 5 3 3 0 4 4 4 4 3 3 4 5 5 5 5 6 7 6 6
13 12 11 11 12 12 10 10 9 8 7 8 7 8 9 10 10 9 10 8 5 4 3 1 3 3 3 1 2 2 4 2 1 1 1 1 1 3 3 3 2 2 1 1 0 1 1 1 1 1 0 2 3 3 2 2 1 4 3 3 0 3 5 3 2 1 1 2 2 4 3 6 7 3 3 3 5 6 5 7 6 5 5 5 5 6 7 7
14 12 12 12 12 12 11 10 8 8 8 7 7 7 7 8 9 9 7 4 3 3 4 4 2 2 3 2 4 4 4 4 3 3 2 1 1 3 2 1 2 3 2 2 1 0 1 1 0 1 3 2 3 3 3 3 5 4 4 3 4 0 3 1 3 4 3 0 2 3 7 9 10 11 8 5 7 6 7 7 7 6 6 6 6 6 7 7
13 12 12 12 10 10 10 9 7 7 7 7 8 9 12 12 6 4 3 3 3 3 2 4 5 6 2 10 4 6 3 3 3 2 2 1 0 1 1 1 3 4 2 2 0 1 0 2 0 2 4 4 5 4 5 1 4 5 2 2 2 3 4 3 2 2 3 3 3 5 7 6 8 10 9 8 7 8 9 8 7 7 8 7 6 6 6 7
12 13 12 10 10 9 8 6 6 7 6 5 4 3 2 2 1 2 4 4 5 2 4 4 9 4 4 6 5 2 3 4 4 0 4 2 1 1 2 3 1 2 1 2 2 0 0 2 2 3 4 5 4 6 1 4 4 2 1 1 3 4 2 4 4 2 1 1 4 7 7 8 9 9 8 7 6 6 6 7 7 6 7 7 7 7 8 8
12 13 12 11 11 8 8 7 6 6 3 4 5 3 4 8 6 5 5 3 7 1 1 5 2 3 4 6 4 6 7 1 1 2 1 0 2 4 3 3 3 2 3 1 4 0 1 0 4 4 3 2 2 4 3 2 4 1 2 3 4 2 1 2 2 0 4 2 2 3 5 8 8 6 6 6 6 11 11 10 9 10 8 7 8 9 10 9
13 13 12 11 9 9 8 6 5 2 0 4 4 5 3 2 1 0 1 3 5 3 1 2 3 4 1 6 2 2 2 4 3 4 1 1 3 4 4 3 5 4 4 4 4 1 1 4 4 5 3 4 5 4 5 4 2 2 1 2 1 3 3 3 4 1 0 1 6 5 6 10 9 7 6 8 11 12 12 10 10 8 7 8 8 9 10 7
12 13 13 10 9 9 8 6 4 2 3 3 4 5 1 1 1 1 1 1 4 1 2 1 3 6 2 2 1 1 4 4 6 5 4 2 4 2 7 5 6 4 6 6 4 3 2 4 10 2 4 5 3 3 1 1 0 1 2 1 2 1 1 1 1 1 2 2 3 5 7 12 15 11 13 16 13 13 12 9 7 7 8 6 8 7 6 8
13 12 11 10 9 8 7 5 3 3 5 7 6 2 2 1 1 2 0 2 2 2 1 3 1 2 5 4 3 3 3 3 6 8 4 3 7 2 2 7 6 5 6 7 7 5 4 1 2 4 3 1 3 1 2 2 2 4 3 1 2 1 1 1 2 2 2 1 4 6 8 8 10 10 5 8 12 11 13 8 7 8 7 8 6 5 6 7
13 12 11 10 9 8 6 3 3 4 3 5 8 5 2 3 1 2 0 1 1 1 3 2 2 2 3 2 2 2 0 3 3 6 6 6 6 3 3 4 3 6 5 7 7 5 4 1 1 4 1 1 2 3 3 3 3 2 6 7 5 2 3 4 4 4 2 2 1 0 6 5 1 5 8 1 2 3 4 6 8 9 9 7 7 9 7 6
16 14 12 11 10 9 8 2 4 4 3 4 0 1 3 3 1 1 1 2 3 3 2 6 3 4 3 3 3 1 3 1 3 2 7 0 4 1 1 3 2 4 8 6 6 3 1 1 0 4 4 3 1 2 4 3 2 1 1 5 3 1 4 2 3 2 2 0 1 1 0 9 3 8 6 5 5 6 3 6 9 9 9 7 9 7 7 6
12 15 15 13 12 12 5 2 2 6 3 3 2 3 2 1 2 1 1 1 5 5 8 1 1 1 2 6 5 3 4 4 1 4 2 3 2 2 3 3 2 1 3 0 4 3 3 2 5 1 4 4 2 1 1 5 2 2 1 2 1 3 3 2 1 1 3 1 3 6 5 6 9 9 7 13 15 9 6 6 9 10 8 8 7 8 6 5
12 12 13 15 16 12 1 2 4 5 0 1 3 3 2 1 1 1 1 2 3 6 4 3 1 3 1 5 6 5 2 10 5 2 4 1 0 1 1 4 7 4 1 4 6 2 2 5 4 3 2 3 5 1 2 5 2 1 1 3 3 4 4 1 1 1 2 3 7 4 3 2 6 3 7 10 8 7 9 8 8 8 6 6 3 4 5 5
13 13 13 13 17 20 4 3 1 4 2 1 3 0 1 2 1 2 2 2 1 3 4 7 3 1 4 5 6 5 3 2 1 3 2 2 2 0 5 4 3 5 5 4 4 1 3 1 1 4 5 4 3 1 4 3 3 2 2 2 4 3 2 3 1 1 3 2 8 5 5 3 14 7 5 6 7 7 8 7 10 8 7 4 7 5 5 4
15 14 14 13 9 6 4 2 5 1 1 2 1 0 2 1 1 2 5 6 4 3 1 2 2 9 7 9 6 4 3 1 3 2 3 3 2 1 1 0 0 3 4 3 1 1 1 3 4 1 2 1 4 3 3 5 3 5 3 5 2 1 2 1 1 1 2 4 7 10 9 3 7 8 7 7 7 9 6 6 7 3 4 5 5 6 5 4
16 16 16 15 8 5 3 3 6 2 3 1 1 3 2 0 2 4 4 3 3 3 1 3 4 11 12 13 8 4 3 3 3 6 4 1 2 2 1 1 2 3 5 1 0 2 1 1 0 0 1 4 4 4 5 2 1 2 1 1 1 1 3 1 0 2 2 7 1 6 9 8 4 5 6 3 3 8 10 8 5 4 4 5 3 4 4 5
15 18 18 13 5 6 7 2 2 5 4 1 2 3 3 3 4 5 4 3 3 5 6 5 5 8 12 8 6 10 8 5 5 7 8 5 5 7 6 6 5 3 2 4 3 2 2 2 2 2 5 3 3 6 4 3 1 1 3 3 5 2 1 2 1 1 4 7 1 2 4 3 14 10 3 0 1 5 4 3 2 1 3 5 5 5 5 5
8 16 20 13 8 6 6 2 2 4 6 1 1 2 3 3 6 6 6 7 2 5 4 8 11 11 10 8 5 7 5 7 6 5 6 4 7 7 7 8 9 8 4 5 4 2 2 2 5 3 4 4 3 8 2 1 3 4 7 7 5 2 2 4 3 3 2 2 2 1 5 5 10 7 6 7 6 6 6 5 1 0 2 2 5 5 5 5
2 10 9 11 10 7 4 3 2 4 7 2 2 3 1 6 5 9 10 7 1 2 9 5 10 7 12 10 7 9 3 1 9 5 6 4 5 6 7 9 7 8 0 4 8 7 3 4 5 5 3 5 4 5 10 6 8 8 2 8 8 6 4 4 4 5 6 3 0 3 2 8 2 3 3 2 2 5 6 5 3 4 5 5 3 6 6 6
2 5 8 6 7 7 6 3 5 4 5 4 5 7 9 8 7 10 12 7 2 2 3 8 10 10 7 3 3 9 2 3 7 7 6 8 8 7 8 9 9 5 2 2 3 2 11 5 2 11 0 12 10 3 5 5 2 3 3 1 3 8 0 3 1 0 1 1 2 2 6 2 4 2 2 1 2 3 3 6 7 6 6 2 3 5 7 7
2 1 5 4 6 6 5 4 4 5 6 6 8 7 12 11 10 9 5 5 2 5 7 7 4 7 6 5 2 7 5 3 7 4 3 7 5 8 6 6 11 14 8 9 3 3 2 4 0 3 5 13 8 4 2 7 4 5 4 6 6 1 1 1 2 2 2 2 10 3 7 8 4 13 13 15 13 10 6 7 6 6 6 5 6 8 6 6
1 2 4 3 5 6 5 5 6 2 3 7 10 12 13 8 4 1 3 8 7 14 9 10 5 7 8 6 4 5 2 4 6 5 4 3 4 6 7 6 9 11 13 9 3 2 6 2 2 2 4 1 0 2 1 3 0 7 3 5 2 2 2 3 4 1 2 6 8 5 9 12 1 13 1 7 7 9 7 6 6 6 6 7 10 8 7 8
3 2 2 3 6 9 9 5 6 5 7 2 11 16 5 10 6 4 1 9 12 12 8 9 3 7 6 7 7 8 5 8 9 6 4 10 4 9 11 5 10 13 16 9 5 2 4 2 2 2 3 3 4 1 1 2 4 2 5 1 5 2 3 2 2 6 5 4 5 5 5 8 10 15 5 2 4 6 7 8 8 8 8 9 9 9 10 3
2 2 3 5 7 10 8 11 7 5 7 10 9 15 6 8 5 8 3 3 6 7 9 6 4 6 6 10 6 8 11 8 10 8 6 4 5 7 15 10 6 13 13 12 8 2 2 5 1 2 2 0 1 3 9 5 1 0 2 1 1 1 2 6 6 1 3 7 2 12 2 11 6 7 4 9 7 10 10 8 9 11 9 9 8 9 8 5
1 1 3 3 9 10 11 10 5 6 3 14 16 9 2 4 1 2 2 1 5 9 6 7 7 6 7 5 11 8 8 8 11 8 7 5 7 4 9 11 6 8 11 12 6 4 2 3 5 1 4 2 2 5 9 9 9 1 1 2 0 1 1 3 3 4 4 2 4 3 10 10 7 6 6 8 8 10 12 11 9 7 8 8 9 8 5 6
0 2 1 3 9 11 12 7 5 7 7 2 7 4 6 1 2 2 1 5 2 4 0 6 7 8 6 6 5 6 6 8 7 7 6 4 9 2 7 9 7 5 6 6 7 4 2 3 7 3 0 5 7 7 10 12 16 13 14 13 14 9 4 3 8 1 1 3 3 2 12 14 8 5 5 2 2 4 9 10 8 7 7 8 6 6 6 5
3 4 2 8 10 14 11 9 3 3 2 8 12 4 3 5 3 3 1 3 3 1 2 1 1 5 9 9 7 8 6 7 7 7 6 9 10 9 3 13 11 12 11 8 12 11 9 3 4 6 9 10 5 0 3 0 3 5 8 10 10 8 5 5 7 4 1 4 2 3 3 21 2 2 2 1 4 2 5 7 6 7 7 6 5 3 2 4
4 4 4 8 10 12 11 9 5 5 2 3 2 2 4 6 4 3 3 4 2 1 1 1 1 4 5 5 7 7 11 4 10 9 7 11 8 11 5 14 12 13 11 4 5 1 3 1 1 3 2 2 3 0 1 1 1 1 5 1 4 8 7 6 5 4 5 2 5 5 6 17 4 2 2 2 3 3 2 2 5 3 2 3 5 4 4 3
4 4 1 3 11 7 10 9 7 8 4 2 7 6 5 5 4 5 3 0 3 2 1 1 2 1 1 1 4 9 12 5 10 11 7 6 5 8 10 11 16 8 10 7 8 8 3 2 5 2 0 0 1 2 2 2 1 1 1 3 3 2 5 4 1 1 3 7 9 7 13 16 1 3 2 1 2 2 4 3 1 2 3 4 3 3 4 5
2 2 2 2 7 10 10 4 6 6 8 8 7 8 6 5 7 11 5 2 0 1 1 1 0 2 1 2 1 2 7 15 2 12 8 7 6 1 5 13 15 10 7 7 10 11 6 6 8 7 10 10 7 8 9 6 8 3 2 5 8 8 5 6 7 5 9 10 14 7 10 18 8 4 1 1 2 4 5 4 2 2 5 4 2 3 4 6
6 5 5 3 5 6 8 1 0 6 9 7 7 6 8 7 4 8 11 8 2 2 2 1 3 1 1 0 2 1 2 4 10 2 9 6 2 1 3 2 11 7 6 10 10 10 3 4 10 12 13 14 12 3 4 9 4 6 8 11 7 10 11 6 3 6 14 14 11 9 15 20 18 6 1 4 3 5 5 5 5 5 6 5 3 4 5 5
2 6 5 5 3 7 3 8 8 6 8 11 6 7 11 12 6 3 11 6 7 6 2 2 2 2 2 2 5 5 2 3 3 3 5 8 2 0 4 5 1 5 10 4 5 5 2 4 11 13 15 15 10 3 5 16 14 15 15 12 15 13 13 15 12 16 15 5 14 15 12 11 25 17 9 8 5 6 6 5 6 5 5 6 8 4 4 5
5 5 5 3 4 6 10 8 11 10 7 13 5 7 10 12 11 6 6 11 3 8 7 1 6 6 3 6 4 6 4 4 2 5 4 1 4 0 2 3 2 2 1 1 0 4 5 7 7 10 13 15 12 6 8 8 11 12 14 14 15 15 12 14 19 22 13 12 18 16 6 15 22 20 6 12 11 10 8 9 8 8 6 5 4 5 8 8
5 2 4 3 5 4 9 7 11 13 12 12 5 8 8 12 14 11 6 7 5 3 11 5 10 15 14 8 4 4 3 4 7 4 2 1 4 3 1 2 2 4 0 1 2 0 2 5 5 6 9 10 11 12 8 9 5 5 10 13 15 17 19 21 22 22 20 15 14 18 19 18 19 21 7 7 10 8 8 5 2 2 4 6 6 8 7 7
8 6 2 4 2 3 1 7 9 12 12 13 9 10 10 13 15 11 6 8 8 10 9 13 12 10 14 14 10 9 9 9 6 8 3 3 1 1 4 2 2 2 1 3 2 2 5 6 9 3 3 8 13 11 7 8 8 10 7 9 14 17 20 23 20 18 14 15 18 21 20 20 21 19 11 10 10 6 7 9 10 8 5 5 6 7 8 9
2 1 3 1 6 5 3 2 6 10 9 10 11 8 9 12 13 12 10 10 11 9 11 17 18 10 8 11 11 12 9 9 10 9 1 6 7 3 3 2 3 4 1 2 1 1 4 3 3 2 6 10 14 12 7 2 3 6 10 13 16 18 18 12 12 10 12 16 18 16 15 19 23 13 10 12 7 9 12 13 11 9 7 6 8 10 9 7
7 6 4 3 4 5 7 3 3 6 9 10 11 12 9 14 10 10 7 7 11 10 12 17 12 7 5 9 14 16 17 12 10 6 2 3 4 3 2 2 3 5 3 3 1 3 3 3 4 4 8 12 17 6 1 5 2 10 17 23 23 14 10 8 11 16 20 17 13 12 19 19 20 14 6 9 10 9 12 12 10 8 6 7 9 11 9 8
Wind_Direction
157 152 149 172 203 201 202 208 218 220 230 243 268 283 304 315 344 347 359 357 357 0 358 356 357 352 348 348 343 342 331 285 221 212 212 44 118 91 75 347 5 338 349 306 259 248 243 212 213 148 200 202 72 27 252 203 348 294 225 230 247 219 126 173 140 135 155 129 153 169 179 145 127 168 118 73 107 226 121 186 105 71 63 102 112 112 107 116
161 158 149 188 197 197 198 203 222 234 249 262 280 293 299 320 329 341 347 348 355 353 357 356 351 350 345 341 338 330 325 247 260 244 216 107 177 84 44 20 348 355 303 239 223 222 255 165 187 189 208 197 203 104 243 126 87 168 247 198 249 11 349 359 60 38 34 117 159 166 195 191 157 149 172 155 186 184 169 190 155 134 104 101 121 121 133 139
166 159 159 182 198 196 199 210 223 237 256 276 279 292 304 318 328 334 343 351 345 351 351 350 352 343 346 337 329 321 295 231 262 248 115 273 76 58 29 9 330 35 313 317 292 285 290 326 143 213 231 141 247 154 262 157 133 238 72 250 89 130 60 40 51 69 42 347 137 148 188 182 120 135 147 214 182 172 202 187 174 179 168 158 151 152 145 156
170 160 153 173 196 200 200 211 226 232 262 268 279 285 305 316 326 337 351 348 354 349 346 345 344 347 337 332 329 313 273 300 246 114 82 29 46 43 20 329 319 283 249 250 253 285 315 282 250 227 209 254 131 84 171 179 122 40 83 44 356 312 75 28 52 43 25 8 105 120 86 136 145 116 170 188 277 206 203 206 177 196 176 173 161 158 157 158
171 155 152 164 195 201 205 214 224 246 261 257 268 292 309 313 330 344 350 352 347 351 346 339 343 338 338 327 319 282 276 276 181 56 24 349 21 32 348 332 308 286 245 279 292 261 251 243 231 242 264 191 131 144 218 99 27 267 107 79 3 357 75 25 70 22 358 292 66 106 138 181 80 60 192 220 192 219 185 350 331 65 164 152 155 156 162 163
153 156 157 162 186 205 207 211 223 232 250 239 260 293 299 321 333 340 344 348 350 347 344 344 336 337 332 326 312 250 244 201 44 88 305 347 17 358 347 308 296 283 270 254 260 162 251 234 202 227 211 233 154 186 143 105 89 178 100 86 55 7 94 72 86 359 324 306 118 168 37 77 141 177 196 230 221 135 125 102 79 54 110 146 142 149 170 172
151 157 163 160 180 208 210 212 222 222 250 228 247 291 315 326 328 336 339 342 345 344 340 340 341 330 329 317 232 271 242 322 134 175 156 332 330 271 315 290 260 280 269 271 242 215 218 226 220 196 227 236 162 163 122 125 142 17 86 101 42 39 77 32 80 347 359 354 49 15 255 101 121 242 157 202 222 232 109 109 108 101 101 130 142 164 173 182
154 154 156 166 184 207 216 213 219 218 242 224 251 310 310 316 336 332 336 336 340 337 339 338 340 341 344 261 151 204 208 200 68 174 137 332 292 217 229 276 262 272 275 252 291 231 170 243 198 254 265 288 169 140 169 136 192 217 139 111 99 84 79 85 100 85 16 49 1 12 31 252 40 297 18 258 239 252 164 120 123 119 118 144 148 170 178 181
158 157 157 165 188 213 218 215 218 221 238 232 261 282 299 310 329 334 332 333 332 331 328 336 340 342 312 289 250 279 212 64 333 343 60 14 340 305 119 275 192 232 271 264 264 315 339 218 257 196 325 133 264 103 210 183 173 303 80 108 134 94 116 118 109 105 190 83 7 258 251 103 116 110 264 249 240 212 206 128 134 133 132 164 170 176 177 183
163 161 157 155 183 216 216 230 225 228 236 244 263 278 292 301 321 329 328 329 326 326 322 327 350 340 331 218 220 257 164 245 286 114 60 13 308 292 225 279 310 260 236 173 277 248 229 340 28 18 9 42 222 68 57 35 141 335 130 116 115 125 114 243 139 122 63 63 185 307 266 125 308 107 274 234 233 203 157 149 154 150 173 178 185 187 183 184
163 160 148 146 156 167 223 223 235 237 244 248 261 276 287 298 316 323 328 322 323 314 320 333 348 342 224 216 242 223 218 294 316 32 62 272 296 331 36 0 351 324 272 150 16 28 347 314 353 6 34 143 93 85 25 66 303 89 95 93 99 158 123 189 163 140 172 93 241 276 289 316 154 151 237 180 209 127 161 189 180 169 196 204 202 195 194 191
164 165 161 165 163 183 212 220 231 235 242 249 261 280 292 301 317 318 321 322 306 318 325 335 342 309 281 260 229 295 265 10 296 308 96 328 36 175 299 256 294 289 333 170 69 27 355 347 330 61 310 131 124 109 91 224 243 136 168 141 157 141 169 183 176 179 221 116 256 50 290 264 180 218 240 186 144 152 179 189 203 195 197 214 220 200 187 197
167 166 169 170 177 198 216 223 227 231 235 245 252 267 280 296 307 314 314 313 318 313 321 347 333 234 289 210 118 241 284 303 22 279 96 88 156 220 177 253 277 6 327 92 115 10 335 311 339 155 53 298 96 144 162 252 95 132 268 319 147 186 225 193 136 125 165 93 181 80 0 257 219 220 239 154 149 140 165 208 203 194 195 201 203 204 193 187
163 169 175 176 183 194 211 221 225 230 233 238 242 256 279 296 304 309 309 303 304 301 317 339 337 268 246 291 64 68 327 323 228 242 109 177 251 5 163 339 33 62 45 83 78 252 277 258 279 99 66 30 141 255 140 106 93 163 181 140 224 150 277 150 148 164 172 239 208 37 215 288 343 19 104 136 153 153 198 215 224 217 205 196 194 193 198 202
168 176 180 183 191 190 209 218 221 223 229 236 243 257 278 294 300 300 300 298 279 301 310 305 240 227 205 76 305 127 334 289 247 105 45 338 150 127 101 77 60 55 49 77 123 239 264 342 320 132 56 312 89 132 131 142 204 231 82 266 261 221 131 193 52 158 184 269 204 175 240 254 267 166 134 83 97 181 214 235 233 226 219 195 182 191 201 210
170 179 185 190 196 198 202 210 218 223 223 241 253 270 284 290 290 292 285 278 283 278 260 260 186 266 309 205 120 313 241 198 141 64 95 266 353 111 111 106 144 129 131 25 332 276 254 50 58 53 120 353 210 176 166 120 220 228 176 267 174 217 161 197 258 102 51 115 238 188 237 304 252 162 161 180 170 180 233 257 249 241 230 218 183 188 203 209
180 183 178 188 197 196 197 205 214 225 236 246 266 279 276 273 280 285 278 282 267 203 217 292 161 175 246 351 284 214 179 79 298 169 214 42 317 136 144 150 108 97 54 218 301 291 17 83 273 350 332 190 196 214 146 204 215 208 175 231 206 179 162 205 14 275 154 195 187 227 257 250 272 254 167 229 181 172 202 225 233 231 222 218 208 195 196 200
183 184 180 189 200 199 195 197 208 219 234 253 265 276 279 283 289 298 258 230 226 215 228 219 259 140 243 34 192 179 106 125 142 118 20 337 305 244 157 146 130 138 173 118 5 96 37 61 357 187 149 253 218 230 145 202 201 190 183 213 254 220 280 177 163 181 157 231 280 203 215 251 270 284 279 213 200 194 207 214 221 228 239 240 228 217 208 202
182 184 184 192 197 201 198 205 211 221 234 251 259 268 271 273 257 241 238 160 174 117 196 184 179 184 251 182 105 92 73 117 89 125 169 192 228 346 317 76 208 155 165 206 179 203 203 77 109 330 159 212 216 208 188 295 38 22 58 186 223 211 217 210 61 156 187 156 214 239 243 244 244 252 253 258 233 213 220 223 228 227 228 233 233 231 223 215
182 185 184 186 192 192 184 184 203 219 226 241 226 235 203 160 163 151 191 215 238 153 344 154 191 81 109 77 93 16 156 235 124 308 99 353 129 193 193 192 88 315 183 184 154 234 42 140 177 195 209 194 203 224 215 66 28 356 4 27 344 16 11 84 89 53 5 5 243 232 246 252 257 260 268 270 268 259 251 244 241 229 222 222 224 231 233 227
177 180 182 187 190 189 181 192 200 217 228 265 261 227 179 175 151 181 162 223 244 48 45 40 4 38 69 104 130 170 122 81 289 145 149 25 310 171 167 176 145 209 233 162 124 69 24 231 224 228 222 9 197 177 70 59 29 22 15 9 318 129 330 49 122 174 17 65 294 305 290 271 265 258 258 258 263 260 248 245 245 244 232 222 218 230 232 233
175 178 180 187 186 192 192 196 201 210 137 267 243 219 343 69 339 25 123 192 246 126 104 69 226 85 95 127 181 4 313 114 142 136 118 254 184 177 153 200 171 196 171 73 71 61 86 196 235 221 116 94 47 45 61 28 351 76 1 358 27 296 123 70 69 1 124 96 263 275 287 281 271 259 258 248 242 251 248 232 236 237 241 232 220 225 229 223
175 180 182 180 182 187 186 189 204 231 246 216 216 240 274 68 253 153 250 296 176 113 191 191 171 136 108 6 216 272 187 147 157 168 173 184 155 258 141 195 180 206 143 155 146 168 177 229 241 88 111 99 59 76 53 153 70 310 154 138 218 206 72 294 7 4 235 200 285 324 305 280 277 260 244 243 241 246 254 250 244 230 236 237 230 218 211 215
174 174 175 174 175 181 183 179 226 221 240 237 249 233 102 232 324 259 222 216 161 175 211 183 273 169 151 152 166 178 197 152 134 173 135 172 176 145 192 189 192 205 171 186 193 188 196 54 35 105 88 117 131 126 129 123 242 207 215 226 238 222 157 89 149 237 210 236 31 318 295 271 255 268 270 247 231 237 256 271 268 255 241 239 243 250 222 217
174 172 169 169 169 164 168 156 214 226 213 243 260 270 135 90 241 324 97 225 229 137 302 2 118 275 148 295 126 200 103 13 3 141 160 189 162 114 225 187 222 206 204 183 204 224 211 231 254 105 111 93 128 147 197 157 254 245 204 189 212 284 357 44 31 20 346 297 249 29 347 299 297 224 239 274 89 221 246 232 246 247 247 245 245 240 243 240
174 171 168 167 164 150 139 196 215 201 211 217 82 89 104 113 28 317 79 214 239 142 43 199 102 206 98 144 97 241 57 180 348 113 145 104 343 200 96 241 157 213 201 181 203 197 189 312 248 143 135 127 214 192 198 156 216 25 297 354 9 313 67 70 13 53 337 297 240 230 20 274 319 293 279 289 269 247 238 208 237 242 244 234 230 229 227 215
180 172 167 166 158 147 156 210 79 129 162 256 137 128 110 112 15 308 159 58 278 164 154 355 100 248 22 161 155 143 148 182 220 79 135 1 182 38 179 171 82 18 312 147 44 241 96 173 71 107 110 129 151 171 190 154 150 245 315 310 33 91 87 84 82 149 235 315 273 176 178 260 286 258 235 244 249 247 243 223 233 240 236 227 213 211 201 186
179 178 173 163 158 180 344 80 140 168 179 315 315 96 130 97 210 234 15 175 252 135 145 228 231 337 3 169 180 164 27 121 140 206 2 151 41 78 39 174 176 186 216 93 186 4 141 160 149 147 158 145 182 196 184 159 151 188 242 317 76 70 93 49 109 334 270 13 292 179 154 315 251 250 209 215 233 229 231 239 262 257 241 226 198 130 126 121
177 177 176 174 166 194 235 332 172 208 54 329 33 348 92 135 263 200 190 222 133 113 317 129 313 169 121 159 195 131 145 3 327 78 261 47 11 149 198 247 233 192 190 185 198 97 4 152 192 161 148 186 92 20 350 160 141 253 202 78 89 74 51 83 17 59 327 26 273 159 181 206 283 243 234 204 206 203 219 223 237 249 230 170 113 118 113 110
179 178 177 173 167 206 250 288 268 46 121 35 256 58 223 214 157 217 132 249 134 174 85 113 205 162 161 154 181 141 152 93 48 136 159 160 170 265 2 93 268 220 185 187 35 75 97 193 183 59 185 92 123 55 44 46 84 144 171 84 48 48 85 1 74 75 28 258 253 162 194 180 287 289 198 158 199 188 182 238 251 220 107 103 129 145 157 149
181 180 179 165 182 181 154 250 235 151 73 307 219 233 161 291 186 170 187 210 358 84 119 141 129 147 163 160 162 193 137 120 143 145 122 200 85 322 176 24 351 41 31 28 34 150 128 39 141 72 323 126 107 68 20 12 98 128 110 123 81 359 36 38 354 48 129 262 354 179 173 186 206 305 9 50 146 158 169 209 208 189 145 140 150 149 154 149
190 181 175 172 181 142 177 220 91 128 123 198 246 172 162 120 316 201 191 69 229 169 178 173 161 161 176 169 138 174 159 130 157 167 151 174 150 176 205 181 152 109 270 173 230 69 209 219 125 43 313 148 131 87 6 18 352 65 125 103 111 237 56 314 72 286 193 239 258 322 189 281 237 238 45 70 244 191 204 206 179 123 130 180 185 177 165 158
208 188 176 181 174 176 222 67 145 130 127 96 238 186 177 152 206 206 233 147 246 142 177 148 160 169 170 170 166 162 146 165 163 188 139 175 161 209 205 198 183 174 187 173 186 105 268 99 143 108 34 263 173 130 149 32 243 192 159 151 117 202 197 244 220 205 253 268 300 5 359 245 266 298 234 232 199 224 224 261 329 102 250 198 181 173 171 180
1 196 184 185 191 191 180 121 106 143 124 136 171 132 317 204 213 193 217 188 174 300 143 148 144 148 168 183 165 152 153 184 153 174 159 157 186 187 215 238 195 222 10 134 183 173 206 303 238 126 253 167 206 200 174 163 172 203 185 158 173 161 174 208 175 205 218 216 257 301 82 238 92 249 311 248 247 237 239 236 222 213 221 228 163 174 181 185
329 212 192 180 207 206 191 126 141 188 143 140 149 184 178 207 216 197 215 191 114 109 84 138 145 150 182 189 118 163 117 162 173 157 181 161 201 202 185 205 215 201 184 223 211 120 208 214 240 179 186 157 185 218 166 112 122 220 218 254 266 224 100 203 183 186 291 4 320 232 212 231 184 269 243 27 25 314 283 261 247 245 251 236 227 206 205 200
124 149 191 197 188 201 161 135 150 203 173 166 165 192 206 193 202 189 217 115 135 132 133 119 130 153 167 160 316 172 321 113 183 146 211 201 200 200 191 189 198 195 179 198 147 154 97 227 354 15 139 173 192 167 204 144 179 211 131 220 198 340 131 324 359 47 94 40 257 165 288 262 304 270 247 249 240 235 238 240 256 252 248 250 249 245 228 214
91 118 190 186 195 148 147 144 157 157 319 200 176 200 208 221 226 113 143 164 150 130 148 140 200 169 175 177 177 182 151 90 171 148 202 163 266 213 209 219 182 194 210 175 250 179 136 208 321 86 180 327 320 302 26 37 73 102 191 228 85 44 98 145 213 41 171 216 261 125 236 281 41 289 207 211 230 234 226 236 228 232 236 240 243 250 245 238
181 175 287 216 173 148 141 134 144 149 132 247 206 216 196 226 201 262 69 124 147 159 161 164 186 179 170 162 184 173 188 164 180 172 201 164 250 187 202 210 190 198 201 200 185 256 157 237 256 3 350 350 348 12 353 19 39 116 178 315 136 249 267 255 91 252 247 240 278 250 234 262 226 250 301 313 200 227 225 221 224 230 229 234 247 257 255 226
245 159 223 202 146 145 142 133 149 141 164 170 231 216 209 225 196 219 310 153 158 160 186 180 131 215 173 189 164 172 163 181 169 193 160 195 214 190 196 183 202 198 196 186 205 220 120 200 308 330 1 139 57 142 198 203 345 44 10 357 146 104 182 160 194 192 129 241 217 277 287 262 204 244 199 249 210 209 209 217 223 221 218 228 240 244 249 188
263 229 249 120 147 130 129 132 137 132 175 191 194 219 5 226 155 309 20 256 187 184 199 182 163 163 202 202 161 161 198 190 167 195 194 172 210 199 186 183 186 193 181 186 210 127 279 148 239 253 306 86 197 203 214 159 153 236 205 252 214 158 263 113 298 177 173 201 211 275 288 261 244 200 226 223 225 207 195 205 221 213 221 223 227 236 224 194
152 313 285 80 129 125 123 120 165 158 162 296 330 292 340 341 349 252 3 46 2 35 61 199 175 181 176 164 179 163 169 186 178 190 195 202 185 235 193 175 155 159 147 161 189 162 196 144 196 122 11 231 231 197 198 179 184 181 186 204 195 171 180 185 258 151 176 190 227 217 261 277 260 170 217 215 230 200 192 187 196 205 214 227 238 231 192 188
215 220 193 151 142 141 133 180 119 98 126 189 203 165 243 319 324 289 333 7 52 14 30 346 265 191 164 194 160 172 150 184 189 188 202 204 206 218 171 166 167 151 153 173 193 195 181 164 149 181 208 209 206 279 206 97 216 224 195 224 200 201 180 158 213 245 85 255 262 205 279 265 229 100 105 63 59 60 154 155 182 194 215 225 228 200 169 170
220 217 46 152 158 162 161 197 124 139 160 260 19 306 295 333 295 353 326 347 255 47 356 253 204 193 193 177 170 168 163 195 186 202 199 215 229 201 181 174 153 164 157 178 184 265 131 116 148 259 109 47 35 136 31 131 104 323 268 327 147 205 194 187 188 184 176 182 210 237 232 263 287 73 102 94 104 95 48 161 169 164 194 197 197 181 153 124
225 228 113 190 175 186 180 190 172 179 169 129 189 236 186 251 312 323 290 272 176 33 226 280 298 20 352 244 187 185 172 211 198 199 220 201 246 189 182 181 158 172 160 191 170 176 167 216 171 150 263 122 6 354 331 4 33 220 221 198 217 279 183 196 166 18 244 202 204 159 239 255 304 344 359 102 111 155 189 252 202 229 272 235 224 196 165 175
251 277 270 159 199 202 205 180 171 162 170 162 161 196 178 209 236 236 270 281 291 339 170 247 29 1 235 72 9 359 187 196 180 212 212 186 228 351 219 181 176 177 186 174 168 162 175 165 169 181 202 211 221 204 203 203 212 227 230 211 195 198 195 118 212 183 229 239 227 214 249 258 245 30 27 3 244 234 243 228 247 215 235 258 239 213 213 180
205 211 179 192 208 214 234 329 273 165 179 162 185 201 174 207 225 218 214 258 271 294 325 312 355 7 34 185 241 242 283 231 210 147 201 214 186 352 1 257 185 177 170 139 154 152 175 187 187 192 202 220 229 222 171 135 99 187 222 201 207 203 204 193 157 194 217 232 241 231 236 260 268 250 352 267 287 238 233 245 237 251 263 269 275 234 220 222
239 224 163 193 142 254 249 206 213 184 191 168 195 161 196 207 179 190 188 227 215 229 245 226 249 147 244 179 215 223 225 312 316 250 193 204 48 170 22 12 212 94 126 85 147 100 83 194 206 209 218 229 230 187 190 152 176 201 203 206 206 202 199 201 201 224 218 225 253 238 231 254 264 254 239 258 256 267 257 246 241 248 244 228 234 249 254 236
227 232 234 192 203 193 215 225 209 207 202 170 209 158 193 192 197 202 171 215 183 195 211 229 242 247 269 203 174 210 168 219 189 228 190 203 98 112 48 1 38 308 139 103 32 140 145 202 219 213 230 238 239 227 160 185 181 190 201 198 202 209 204 205 221 231 217 208 235 250 206 234 256 264 212 240 243 227 224 234 227 214 214 211 183 207 228 235
255 328 235 209 226 213 207 220 187 199 203 177 211 189 190 193 202 203 175 175 205 200 191 221 217 220 227 241 213 224 216 196 240 246 197 141 137 121 75 6 307 56 73 70 62 79 133 234 219 213 238 245 249 242 223 211 225 197 197 203 201 199 207 210 221 227 225 230 241 254 253 244 254 265 238 223 246 236 241 238 266 260 230 198 201 222 233 241
198 203 227 228 302 300 300 199 197 202 216 183 196 201 200 194 207 194 179 160 179 214 181 211 219 205 213 219 217 218 214 220 214 231 205 121 307 159 185 182 177 344 19 174 144 296 153 225 211 225 255 254 250 251 244 246 250 251 234 216 208 210 213 213 219 229 234 244 243 249 257 263 255 254 271 257 266 287 287 283 279 269 251 239 239 245 247 246
288 233 354 300 224 220 234 273 196 195 204 200 207 202 208 203 211 190 203 180 183 175 179 207 216 202 201 213 218 228 232 222 229 228 179 166 199 239 148 282 99 141 121 102 53 318 155 260 53 97 236 256 256 246 245 278 270 260 257 247 237 223 221 219 223 220 221 228 233 242 252 255 260 258 254 270 271 274 275 272 269 270 263 235 237 243 247 253
248 282 297 289 267 199 204 200 245 188 215 202 202 205 203 209 208 179 218 198 201 194 184 204 206 178 196 194 213 219 221 219 227 237 165 100 88 83 78 151 127 142 161 129 22 107 172 153 207 180 226 243 256 260 272 179 225 260 249 240 233 238 244 232 225 220 221 220 229 229 239 245 258 269 270 271 269 258 264 272 274 268 243 231 246 257 258 260